Location: Palau
(42.3086°N, 3.1507°E)
Time: 12:26:48
(UTC+00:00)

FALCON 9 R/B - Pass Details

Date: 26 May 2020
Orbit: 292 x 10139 km, 34.5° (Epoch: 11 July)

Event Time Altitude Azimuth Distance (km) Brightness Sun altitude
Exits shadow 00:37:20 48° 179° (S) 1,598 3.1 -25.4°
Maximum altitude 00:38:02 49° 163° (SSE) 1,687 3.3 -25.3°
Drops below altitude 10° 00:54:12 10° 95° (E) 7,061 7.0 -24.5°
Sets 01:04:04 0° 93° (E) 9,973 7.9 -23.9°
